Showing default

GOES-U, 60133

Orbit data source: Space-Track

GOES-U, 60133 is a payload satellite owned by NOAA (US) in GEO that was launched on Tue, 25 Jun 2024 UTC via an FALCON HEAVY launch vehicle from the Air Force Eastern Test Range (AFETR). Payloads include a variety of satellites, spacecraft, and rockets equipped with specific instruments for various scientific and technological missions. These include communications satellites like Starlink; space stations such as the ISS; scientific satellites like the Hubble; Earth observation satellites from companies like Planet Labs, Umbra, and HawkEye 360; GPS; miniature CubeSats for education and research; and military/defense satellites.

Loading next visibility...
GOES-U details
Identifier
60133, 2024-119A
Orbit
GEO
Last TLE update13 hours ago
Origin
Flag of USNOAA (US)
ManufacturerLMCSS
MissionOperational Civil Weather
Bus & MotorA2100, LEROS-1C
Mass~5,000 kg wet, 2,925 kg dry
Launch date (UTC)
2024-06-25 (6 months ago)
Launch vehicle
FALCON HEAVY
Launch site
Air Force Eastern Test Range (AFETR)
Object type
Payload
Rocket body
Debris
Shape & HBRBox + 1 Pan + 1 Rod, 12 m
Radar Cross Section37.561 m²

Expand to show TLE details & history

TLE from 13 hours ago
0 GOES-U
1 60133U 24119A   24348.36256413 -.00000170  00000-0  00000+0 0  9999
2 60133   0.0123 248.3452 0001406  45.3680 189.8762  1.00278686  1781
Epoch: 2024-12-13T08:42Z
Definitive object data (Epoch: 2024-12-13T08:42:05.54Z)
Latitude0.00091°
Longitude-89.47735°
Altitude35,789.995 km
Speed3.074 km/s
True Right ascension08h 14m 18s
True Declination0° 00' 03"
Sunlit
Object was in daylight at TLE epoch
Visualization TLE readout
Latitude0.00084°
Longitude105.75208°
Altitude35,778.813 km
Speed3.075 km/s
Apparent Right ascension21h 23m 18s
Apparent Declination-6° 12' 02"
Sunlit
Object is in daylight
Visualization observer readout
Local Sidereal Time20:12:33
Azimuth156.374° SSE
Elevation41.082°
Doppler factor1
Orbital elements
Apogee altitude35,791.659 km
Perigee altitude35,779.803 km
Semi-major axis42,163.868 km
Eccentricity0.0001406
Inclination0.0123°
RAAN248.3452°
Arg. of periapsis45.368°
True anomaly189.87344°
Mean anomaly189.8762°
Eccentric anomaly189.87482°
Mean motion0.25069 °/min
BSTARUnknown
Orbital period1436.05 mins
Loading historical data...
60133 neighbors
Authenticating...
Loading maneuver chart data...
Loading historical data...
Loading historical data...
Loading historical data...
Loading historical data...
Loading historical data...
Loading historical data...
Loading historical data...
Other satellites on launch #119 in the year 2024 (2024-06-25 UTC)

GOES-U Visibility forecast

Observer location: undefined°, undefined

Span
Click to sort rows by Start time (UTC) header in descending order
Start Az.
Max El. time (UTC)
Max El. Az.
Max El.
End time (UTC)
End Az.
1440 mins2024-12-13 21:40:46.647Z156.383° SSE2024-12-14 06:40:46.647Z156.367° SSE33.306°2024-12-14 21:40:46.647Z156.343° SSE
|